JJA1513 RKSI-RJCH

Flight info

Callsign JJA1513
Flight time 1h 46m
Altitude 35000
Route EGOBA2Y EGOBA Y697 KAE Y437 TENAS L512 KAMSA Z171 NOMAS Z17 MRE Y113 TAXIR
Aircraft B738/M-SDE2E3FGHIRWXY/LB1

Departure

Time 2026-05-08 09:33
Airport Incheon International Airport (RKSI)

Arrival

Time 2026-05-08 11:20
Airport Hakodate Airport (RJCH)
Time Latitude Longitude Altitude Speed Heading
2026-05-08 09:14 37.45912 126.44924 32 ft 0 kts 208°
2026-05-08 09:27 37.45931 126.44937 32 ft 4 kts 208°
2026-05-08 09:27 37.45955 126.44953 32 ft 4 kts 208°
2026-05-08 09:27 37.45978 126.44968 32 ft 2 kts 208°
2026-05-08 09:28 37.45979 126.44969 32 ft 1 kts 208°
2026-05-08 09:30 37.45976 126.44970 32 ft 1 kts 180°
2026-05-08 09:30 37.45958 126.44990 32 ft 10 kts 139°
2026-05-08 09:30 37.45869 126.45083 32 ft 23 kts 142°
2026-05-08 09:30 37.45720 126.45161 32 ft 21 kts 152°
2026-05-08 09:31 37.45648 126.45283 32 ft 15 kts 66°
2026-05-08 09:31 37.45714 126.45405 32 ft 19 kts 55°
2026-05-08 09:31 37.45730 126.45547 32 ft 18 kts 136°
2026-05-08 09:31 37.45628 126.45639 32 ft 18 kts 144°
2026-05-08 09:32 37.45523 126.45732 32 ft 19 kts 144°
2026-05-08 09:32 37.45430 126.45851 32 ft 20 kts 89°
2026-05-08 09:32 37.45510 126.45983 32 ft 20 kts 14°
2026-05-08 09:32 37.45612 126.45918 32 ft 19 kts 325°
2026-05-08 09:33 37.45954 126.45616 31 ft 104 kts 324°
2026-05-08 09:33 37.46731 126.44918 243 ft 157 kts 324°
2026-05-08 09:33 37.47625 126.44137 1334 ft 154 kts 325°
2026-05-08 09:33 37.48587 126.43333 2015 ft 178 kts 326°
2026-05-08 09:34 37.49708 126.42400 2312 ft 208 kts 326°
2026-05-08 09:34 37.50967 126.41352 2654 ft 230 kts 326°
2026-05-08 09:34 37.52346 126.40201 3209 ft 243 kts 327°
2026-05-08 09:34 37.53772 126.39010 4095 ft 247 kts 327°
2026-05-08 09:35 37.55179 126.37833 5170 ft 246 kts 327°
2026-05-08 09:35 37.56593 126.36588 6091 ft 252 kts 319°
2026-05-08 09:35 37.57602 126.34753 6969 ft 260 kts 295°
2026-05-08 09:35 37.57978 126.32509 7944 ft 266 kts 276°
2026-05-08 09:36 37.57988 126.30167 8911 ft 268 kts 275°
2026-05-08 09:36 37.57976 126.27804 9856 ft 270 kts 275°
2026-05-08 09:36 37.57970 126.25413 10556 ft 280 kts 275°
2026-05-08 09:36 37.57638 126.22850 10767 ft 318 kts 254°
2026-05-08 09:37 37.56324 126.20428 11064 ft 355 kts 226°
2026-05-08 09:37 37.54135 126.18895 11738 ft 376 kts 204°
2026-05-08 09:37 37.51608 126.17958 12545 ft 381 kts 201°
2026-05-08 09:37 37.49050 126.17006 13283 ft 386 kts 203°
2026-05-08 09:38 37.46479 126.15969 14014 ft 390 kts 205°
2026-05-08 09:38 37.43810 126.15165 14699 ft 404 kts 189°
2026-05-08 09:38 37.40984 126.15548 15433 ft 417 kts 166°
2026-05-08 09:38 37.38381 126.17208 16154 ft 425 kts 142°
2026-05-08 09:39 37.36292 126.19856 16835 ft 429 kts 129°
2026-05-08 09:39 37.34399 126.22716 17433 ft 434 kts 125°
2026-05-08 09:39 37.33009 126.26079 18008 ft 434 kts 104°
2026-05-08 09:39 37.32471 126.29773 18626 ft 428 kts 86°
2026-05-08 09:40 37.32453 126.33518 19175 ft 431 kts 84°
2026-05-08 09:40 37.32494 126.37313 19626 ft 438 kts 84°
2026-05-08 09:40 37.32507 126.41166 20109 ft 444 kts 85°
2026-05-08 09:40 37.32484 126.45070 20626 ft 449 kts 85°
2026-05-08 09:41 37.32440 126.49017 21121 ft 455 kts 86°
2026-05-08 09:41 37.32392 126.53014 21600 ft 460 kts 86°
2026-05-08 09:41 37.32344 126.57002 22061 ft 465 kts 86°
2026-05-08 09:41 37.32295 126.61082 22527 ft 470 kts 86°
2026-05-08 09:42 37.32246 126.65214 22993 ft 475 kts 86°
2026-05-08 09:42 37.32195 126.69385 23446 ft 480 kts 86°
2026-05-08 09:42 37.32144 126.73598 23821 ft 485 kts 86°
2026-05-08 09:42 37.32096 126.77849 24176 ft 490 kts 86°
2026-05-08 09:43 37.32048 126.82149 24528 ft 494 kts 87°
2026-05-08 09:43 37.31997 126.86487 24866 ft 499 kts 87°
2026-05-08 09:43 37.31945 126.90802 25199 ft 503 kts 87°
2026-05-08 09:43 37.31890 126.95217 25523 ft 508 kts 87°
2026-05-08 09:44 37.32043 126.99645 25816 ft 507 kts 75°
2026-05-08 09:44 37.33038 127.03832 26159 ft 496 kts 58°
2026-05-08 09:44 37.34678 127.07599 26542 ft 491 kts 51°
2026-05-08 09:44 37.36441 127.11298 26808 ft 496 kts 51°
2026-05-08 09:45 37.38232 127.15032 27085 ft 501 kts 51°
2026-05-08 09:45 37.40016 127.18818 27432 ft 505 kts 52°
2026-05-08 09:45 37.41763 127.22601 27771 ft 509 kts 52°
2026-05-08 09:45 37.43528 127.26479 28075 ft 513 kts 52°
2026-05-08 09:46 37.45303 127.30397 28297 ft 518 kts 52°
2026-05-08 09:46 37.47092 127.34346 28605 ft 521 kts 52°
2026-05-08 09:46 37.48778 127.38406 28908 ft 532 kts 62°
2026-05-08 09:46 37.49789 127.42949 29198 ft 544 kts 74°
2026-05-08 09:47 37.50483 127.47657 29466 ft 549 kts 76°
2026-05-08 09:47 37.51125 127.52348 29714 ft 553 kts 76°
2026-05-08 09:47 37.51812 127.57118 30025 ft 554 kts 75°
2026-05-08 09:47 37.52555 127.61878 30336 ft 554 kts 74°
2026-05-08 09:48 37.53326 127.66634 30663 ft 554 kts 74°
2026-05-08 09:48 37.54096 127.71382 31020 ft 553 kts 74°
2026-05-08 09:48 37.54854 127.76133 31339 ft 553 kts 74°
2026-05-08 09:48 37.55606 127.80891 31623 ft 555 kts 75°
2026-05-08 09:49 37.56346 127.85597 31950 ft 554 kts 75°
2026-05-08 09:49 37.57091 127.90356 32346 ft 553 kts 75°
2026-05-08 09:49 37.57834 127.95106 32694 ft 552 kts 75°
2026-05-08 09:49 37.58577 127.99856 32961 ft 553 kts 75°
2026-05-08 09:50 37.59321 128.04619 33243 ft 554 kts 75°
2026-05-08 09:50 37.60063 128.09385 33566 ft 554 kts 75°
2026-05-08 09:50 37.60801 128.14142 33910 ft 553 kts 75°
2026-05-08 09:50 37.61538 128.18897 34262 ft 551 kts 75°
2026-05-08 09:51 37.62258 128.23551 34724 ft 545 kts 75°
2026-05-08 09:51 37.62984 128.28242 34992 ft 546 kts 76°
2026-05-08 09:51 37.63711 128.32951 34986 ft 547 kts 76°
2026-05-08 09:52 37.65146 128.42303 34989 ft 538 kts 76°
2026-05-08 09:52 37.66560 128.51556 35013 ft 538 kts 76°
2026-05-08 09:53 37.67957 128.60769 35011 ft 538 kts 76°
2026-05-08 09:53 37.69322 128.70071 35006 ft 539 kts 76°
2026-05-08 09:54 37.70220 128.79489 35001 ft 543 kts 89°
2026-05-08 09:54 37.70085 128.89026 35012 ft 544 kts 91°
2026-05-08 09:55 37.69867 128.98520 35022 ft 545 kts 91°
2026-05-08 09:55 37.69710 129.08098 35005 ft 546 kts 90°
2026-05-08 09:56 37.69589 129.17686 35003 ft 546 kts 90°
2026-05-08 09:56 37.69463 129.27272 34989 ft 546 kts 91°
2026-05-08 09:57 37.69249 129.41570 34983 ft 545 kts 91°
2026-05-08 09:57 37.69095 129.51136 34982 ft 545 kts 91°
2026-05-08 09:58 37.68934 129.60749 35245 ft 549 kts 91°
2026-05-08 09:58 37.68851 129.65555 35598 ft 546 kts 91°
2026-05-08 09:58 37.68766 129.70332 35960 ft 543 kts 91°
2026-05-08 09:59 37.68681 129.75026 36232 ft 542 kts 91°
2026-05-08 09:59 37.68594 129.79783 36426 ft 543 kts 91°
2026-05-08 09:59 37.68505 129.84553 36609 ft 544 kts 91°
2026-05-08 09:59 37.68412 129.89329 36816 ft 544 kts 92°
2026-05-08 10:00 37.68316 129.94100 36990 ft 544 kts 92°
2026-05-08 10:00 37.68216 129.98897 36971 ft 547 kts 92°
2026-05-08 10:00 37.68013 130.08412 36971 ft 544 kts 92°
2026-05-08 10:01 37.67804 130.17933 36968 ft 541 kts 92°
2026-05-08 10:01 37.67589 130.27415 36969 ft 539 kts 92°
2026-05-08 10:02 37.67367 130.36872 36965 ft 538 kts 92°
2026-05-08 10:02 37.67139 130.46318 36965 ft 539 kts 92°
2026-05-08 10:03 37.66905 130.55712 36969 ft 540 kts 92°
2026-05-08 10:03 37.66662 130.65200 36971 ft 542 kts 92°
2026-05-08 10:04 37.66410 130.74728 36974 ft 544 kts 93°
2026-05-08 10:04 37.66149 130.84285 36968 ft 546 kts 93°
2026-05-08 10:05 37.65879 130.93883 36962 ft 548 kts 93°
2026-05-08 10:05 37.65603 131.03434 36951 ft 549 kts 93°
2026-05-08 10:06 37.65318 131.13063 36947 ft 549 kts 94°
2026-05-08 10:06 37.65024 131.22684 36947 ft 548 kts 94°
2026-05-08 10:07 37.64723 131.32287 36940 ft 547 kts 94°
2026-05-08 10:07 37.64417 131.41805 36937 ft 546 kts 94°
2026-05-08 10:08 37.64103 131.51359 36931 ft 544 kts 94°
2026-05-08 10:08 37.63817 131.60891 36934 ft 544 kts 92°
2026-05-08 10:09 37.63857 131.70419 36929 ft 543 kts 90°
2026-05-08 10:09 37.63992 131.79869 36929 ft 542 kts 90°
2026-05-08 10:10 37.64071 131.89360 36919 ft 541 kts 91°
2026-05-08 10:10 37.64103 131.98845 36923 ft 540 kts 91°
2026-05-08 10:11 37.64120 132.08258 36914 ft 540 kts 91°
2026-05-08 10:11 37.64134 132.17737 36914 ft 540 kts 92°
2026-05-08 10:12 37.64144 132.27214 36907 ft 540 kts 92°
2026-05-08 10:12 37.64146 132.36700 36907 ft 541 kts 92°
2026-05-08 10:13 37.64140 132.46187 36897 ft 541 kts 92°
2026-05-08 10:13 37.64127 132.55616 36903 ft 541 kts 92°
2026-05-08 10:14 37.64107 132.65117 36899 ft 541 kts 92°
2026-05-08 10:14 37.64512 132.74612 36907 ft 543 kts 85°
2026-05-08 10:15 37.65355 132.84081 36892 ft 543 kts 85°
2026-05-08 10:15 37.66123 132.93498 36888 ft 543 kts 86°
2026-05-08 10:16 37.66823 133.02979 36880 ft 542 kts 86°
2026-05-08 10:16 37.67514 133.12452 36881 ft 542 kts 86°
2026-05-08 10:17 37.68200 133.21911 36872 ft 541 kts 86°
2026-05-08 10:17 37.68874 133.31292 36873 ft 540 kts 86°
2026-05-08 10:18 37.69543 133.40733 36864 ft 539 kts 87°
2026-05-08 10:18 37.70203 133.50150 36867 ft 538 kts 87°
2026-05-08 10:19 37.70855 133.59564 36858 ft 537 kts 87°
2026-05-08 10:20 37.72020 133.73567 36849 ft 538 kts 79°
2026-05-08 10:20 37.73026 133.78112 37129 ft 538 kts 69°
2026-05-08 10:20 37.74343 133.82545 37023 ft 540 kts 67°
2026-05-08 10:21 37.77111 133.91414 36904 ft 544 kts 67°
2026-05-08 10:21 37.79864 134.00345 36862 ft 546 kts 68°
2026-05-08 10:22 37.82541 134.09276 36851 ft 547 kts 68°
2026-05-08 10:22 37.85208 134.18294 36847 ft 547 kts 69°
2026-05-08 10:23 37.87869 134.27323 36847 ft 547 kts 69°
2026-05-08 10:23 37.90525 134.36349 36842 ft 547 kts 69°
2026-05-08 10:24 37.93159 134.45319 36836 ft 547 kts 69°
2026-05-08 10:24 37.95800 134.54341 36833 ft 546 kts 69°
2026-05-08 10:25 37.98432 134.63365 36833 ft 545 kts 69°
2026-05-08 10:25 38.01052 134.72380 36829 ft 545 kts 70°
2026-05-08 10:26 38.03663 134.81393 36824 ft 544 kts 70°
2026-05-08 10:26 38.06248 134.90344 36821 ft 544 kts 70°
2026-05-08 10:27 38.08841 134.99355 36820 ft 543 kts 70°
2026-05-08 10:27 38.11427 135.08370 36819 ft 543 kts 70°
2026-05-08 10:28 38.14007 135.17396 36817 ft 544 kts 70°
2026-05-08 10:28 38.16562 135.26367 36814 ft 544 kts 71°
2026-05-08 10:29 38.19130 135.35412 36816 ft 544 kts 71°
2026-05-08 10:29 38.21694 135.44474 36808 ft 545 kts 71°
2026-05-08 10:30 38.24252 135.53543 36801 ft 545 kts 71°
2026-05-08 10:30 38.26787 135.62566 36799 ft 545 kts 71°
2026-05-08 10:31 38.29335 135.71663 36800 ft 546 kts 71°
2026-05-08 10:31 38.31875 135.80767 36795 ft 546 kts 71°
2026-05-08 10:32 38.34413 135.89892 36803 ft 547 kts 72°
2026-05-08 10:32 38.36927 135.98963 36800 ft 547 kts 72°
2026-05-08 10:33 38.39455 136.08117 36794 ft 548 kts 72°
2026-05-08 10:33 38.41979 136.17289 36787 ft 548 kts 72°
2026-05-08 10:34 38.44498 136.26475 36791 ft 549 kts 72°
2026-05-08 10:34 38.47010 136.35666 36788 ft 549 kts 72°
2026-05-08 10:35 38.49500 136.44810 36783 ft 549 kts 72°
2026-05-08 10:35 38.51999 136.54021 36778 ft 549 kts 72°
2026-05-08 10:36 38.54490 136.63236 36777 ft 549 kts 73°
2026-05-08 10:36 38.56973 136.72455 36776 ft 549 kts 73°
2026-05-08 10:37 38.59431 136.81614 36783 ft 548 kts 73°
2026-05-08 10:37 38.61900 136.90839 36773 ft 548 kts 73°
2026-05-08 10:38 38.64360 137.00068 36775 ft 548 kts 73°
2026-05-08 10:38 38.66814 137.09303 36777 ft 548 kts 73°
2026-05-08 10:39 38.69257 137.18533 36774 ft 548 kts 74°
2026-05-08 10:39 38.71675 137.27704 36773 ft 547 kts 74°
2026-05-08 10:40 38.74100 137.36934 36774 ft 547 kts 74°
2026-05-08 10:40 38.76516 137.46165 36774 ft 546 kts 74°
2026-05-08 10:41 38.78922 137.55389 36771 ft 546 kts 75°
2026-05-08 10:41 38.81302 137.64551 36769 ft 545 kts 75°
2026-05-08 10:42 38.83690 137.73775 36765 ft 545 kts 75°
2026-05-08 10:42 38.86067 137.82992 36759 ft 544 kts 75°
2026-05-08 10:43 38.88436 137.92212 36760 ft 544 kts 75°
2026-05-08 10:43 38.91027 138.01275 36750 ft 547 kts 65°
2026-05-08 10:44 38.95171 138.09448 36751 ft 547 kts 46°
2026-05-08 10:44 39.00336 138.16625 36758 ft 547 kts 45°
2026-05-08 10:45 39.05557 138.23753 36759 ft 548 kts 45°
2026-05-08 10:45 39.10730 138.30962 36759 ft 549 kts 46°
2026-05-08 10:46 39.15842 138.38192 36754 ft 550 kts 46°
2026-05-08 10:46 39.20979 138.45491 36751 ft 550 kts 46°
2026-05-08 10:47 39.26123 138.52807 36749 ft 550 kts 46°
2026-05-08 10:47 39.31264 138.60128 36741 ft 550 kts 47°
2026-05-08 10:48 39.36368 138.67412 36736 ft 550 kts 47°
2026-05-08 10:48 39.41497 138.74749 36733 ft 550 kts 47°
2026-05-08 10:49 39.46616 138.82091 36735 ft 549 kts 47°
2026-05-08 10:49 39.51731 138.89444 36734 ft 549 kts 47°
2026-05-08 10:50 39.56805 138.96755 36731 ft 549 kts 47°
2026-05-08 10:50 39.61908 139.04125 36725 ft 549 kts 47°
2026-05-08 10:51 39.67002 139.11501 36725 ft 549 kts 47°
2026-05-08 10:51 39.72090 139.18886 36723 ft 549 kts 47°
2026-05-08 10:52 39.77175 139.26283 36722 ft 548 kts 47°
2026-05-08 10:52 39.82215 139.33634 36719 ft 548 kts 47°
2026-05-08 10:53 39.87290 139.41052 36719 ft 549 kts 48°
2026-05-08 10:53 39.92360 139.48480 36716 ft 549 kts 48°
2026-05-08 10:54 39.97430 139.55923 36719 ft 549 kts 48°
2026-05-08 10:54 40.02476 139.63352 36186 ft 555 kts 48°
2026-05-08 10:54 40.05029 139.67117 35628 ft 553 kts 49°
2026-05-08 10:55 40.07580 139.70885 35006 ft 554 kts 49°
2026-05-08 10:55 40.10137 139.74666 34348 ft 556 kts 49°
2026-05-08 10:55 40.12702 139.78464 33678 ft 559 kts 49°
2026-05-08 10:55 40.15279 139.82284 32901 ft 561 kts 49°
2026-05-08 10:56 40.17861 139.86117 32202 ft 562 kts 49°
2026-05-08 10:56 40.20444 139.89956 31510 ft 563 kts 49°
2026-05-08 10:56 40.23020 139.93788 31020 ft 558 kts 49°
2026-05-08 10:56 40.25541 139.97543 30505 ft 555 kts 49°
2026-05-08 10:57 40.28080 140.01330 29988 ft 552 kts 49°
2026-05-08 10:57 40.30606 140.05103 29423 ft 549 kts 50°
2026-05-08 10:57 40.35601 140.12573 28335 ft 540 kts 50°
2026-05-08 10:58 40.38062 140.16262 27820 ft 535 kts 50°
2026-05-08 10:58 40.40498 140.19916 27289 ft 529 kts 51°
2026-05-08 10:58 40.42876 140.23486 26805 ft 524 kts 51°
2026-05-08 10:58 40.45257 140.27068 26323 ft 519 kts 52°
2026-05-08 10:59 40.47617 140.30622 25768 ft 513 kts 52°
2026-05-08 10:59 40.49945 140.34132 25339 ft 507 kts 52°
2026-05-08 10:59 40.52250 140.37610 24816 ft 502 kts 53°
2026-05-08 10:59 40.54527 140.41051 24342 ft 496 kts 53°
2026-05-08 11:00 40.56776 140.44454 23862 ft 490 kts 53°
2026-05-08 11:00 40.59001 140.47825 23377 ft 485 kts 53°
2026-05-08 11:00 40.61172 140.51117 22797 ft 481 kts 53°
2026-05-08 11:00 40.63350 140.54425 22268 ft 475 kts 53°
2026-05-08 11:01 40.65496 140.57688 21797 ft 468 kts 53°
2026-05-08 11:01 40.67610 140.60904 21316 ft 462 kts 53°
2026-05-08 11:01 40.69698 140.64083 20845 ft 456 kts 53°
2026-05-08 11:01 40.71837 140.67144 20357 ft 455 kts 45°
2026-05-08 11:02 40.74439 140.69499 19885 ft 454 kts 28°
2026-05-08 11:02 40.80400 140.71504 19004 ft 442 kts
2026-05-08 11:02 40.83452 140.71808 18511 ft 439 kts
2026-05-08 11:03 40.86486 140.72097 18037 ft 436 kts
2026-05-08 11:03 40.89497 140.72410 17516 ft 433 kts
2026-05-08 11:03 40.92481 140.72751 17036 ft 428 kts
2026-05-08 11:03 40.95431 140.73106 16567 ft 423 kts
2026-05-08 11:04 40.98350 140.73463 16108 ft 418 kts
2026-05-08 11:04 41.01231 140.73815 15695 ft 413 kts
2026-05-08 11:04 41.04056 140.74157 15394 ft 404 kts
2026-05-08 11:04 41.06805 140.74487 14979 ft 400 kts
2026-05-08 11:05 41.09563 140.74819 14568 ft 396 kts
2026-05-08 11:05 41.12294 140.75149 14152 ft 392 kts 360°
2026-05-08 11:05 41.14997 140.75482 13765 ft 388 kts 360°
2026-05-08 11:05 41.17673 140.75814 13336 ft 385 kts 359°
2026-05-08 11:06 41.20328 140.76143 12875 ft 381 kts 359°
2026-05-08 11:06 41.22934 140.76465 12437 ft 377 kts 359°
2026-05-08 11:06 41.25555 140.76789 12003 ft 374 kts 360°
2026-05-08 11:06 41.28097 140.77104 11586 ft 370 kts 360°
2026-05-08 11:07 41.30650 140.77420 11174 ft 367 kts
2026-05-08 11:07 41.33176 140.77733 10794 ft 362 kts
2026-05-08 11:07 41.35658 140.78042 10557 ft 354 kts
2026-05-08 11:07 41.38070 140.78343 10463 ft 341 kts
2026-05-08 11:08 41.40398 140.78634 10320 ft 331 kts
2026-05-08 11:08 41.42658 140.78885 10180 ft 319 kts 354°
2026-05-08 11:08 41.44757 140.78387 10061 ft 297 kts 332°
2026-05-08 11:08 41.46482 140.77136 9927 ft 280 kts 319°
2026-05-08 11:09 41.48089 140.75686 9649 ft 278 kts 318°
2026-05-08 11:09 41.49661 140.74220 9363 ft 276 kts 317°
2026-05-08 11:09 41.51236 140.72747 9061 ft 275 kts 318°
2026-05-08 11:09 41.52797 140.71294 8768 ft 273 kts 318°
2026-05-08 11:10 41.54351 140.69854 8487 ft 271 kts 318°
2026-05-08 11:10 41.55897 140.68427 8204 ft 269 kts 318°
2026-05-08 11:10 41.57413 140.67029 7926 ft 268 kts 319°
2026-05-08 11:10 41.58942 140.65621 7653 ft 266 kts 319°
2026-05-08 11:11 41.60463 140.64222 7376 ft 265 kts 319°
2026-05-08 11:11 41.61975 140.62830 7102 ft 264 kts 319°
2026-05-08 11:11 41.63482 140.61443 6826 ft 262 kts 319°
2026-05-08 11:11 41.64984 140.60060 6543 ft 262 kts 319°
2026-05-08 11:12 41.66479 140.58684 6276 ft 260 kts 318°
2026-05-08 11:12 41.67938 140.57333 5994 ft 259 kts 319°
2026-05-08 11:12 41.69420 140.55966 5714 ft 257 kts 319°
2026-05-08 11:12 41.70890 140.54610 5428 ft 257 kts 320°
2026-05-08 11:13 41.72358 140.53260 5146 ft 255 kts 320°
2026-05-08 11:13 41.73804 140.51928 5026 ft 248 kts 320°
2026-05-08 11:13 41.75204 140.50640 4912 ft 240 kts 320°
2026-05-08 11:13 41.76559 140.49398 4767 ft 232 kts 323°
2026-05-08 11:14 41.78075 140.48758 4692 ft 234 kts 358°
2026-05-08 11:14 41.79115 140.48953 4624 ft 235 kts 12°
2026-05-08 11:14 41.80698 140.49579 4570 ft 239 kts 15°
2026-05-08 11:14 41.82258 140.50406 4299 ft 244 kts 33°
2026-05-08 11:15 41.83373 140.52066 4044 ft 240 kts 67°
2026-05-08 11:15 41.83688 140.54183 3844 ft 228 kts 98°
2026-05-08 11:15 41.83365 140.56202 3610 ft 216 kts 111°
2026-05-08 11:15 41.82920 140.58059 3389 ft 202 kts 113°
2026-05-08 11:16 41.82490 140.59807 3202 ft 193 kts 112°
2026-05-08 11:16 41.82077 140.61481 3043 ft 186 kts 113°
2026-05-08 11:16 41.81669 140.63126 3000 ft 186 kts 114°
2026-05-08 11:16 41.81283 140.64696 3017 ft 172 kts 113°
2026-05-08 11:17 41.80913 140.66224 2878 ft 172 kts 113°
2026-05-08 11:17 41.80529 140.67737 2407 ft 174 kts 113°
2026-05-08 11:17 41.80149 140.69273 1873 ft 171 kts 111°
2026-05-08 11:17 41.79800 140.70716 1627 ft 155 kts 111°
2026-05-08 11:18 41.79476 140.72052 1445 ft 149 kts 111°
2026-05-08 11:18 41.79157 140.73367 1228 ft 147 kts 110°
2026-05-08 11:18 41.78845 140.74657 1045 ft 145 kts 109°
2026-05-08 11:18 41.78534 140.75940 843 ft 145 kts 107°
2026-05-08 11:19 41.78228 140.77205 660 ft 144 kts 106°
2026-05-08 11:19 41.77920 140.78481 470 ft 144 kts 106°
2026-05-08 11:19 41.77608 140.79764 296 ft 145 kts 105°
2026-05-08 11:19 41.77306 140.81004 161 ft 131 kts 106°
2026-05-08 11:20 41.77076 140.81970 160 ft 65 kts 108°
2026-05-08 11:20 41.77054 140.82214 160 ft 17 kts 34°
2026-05-08 11:20 41.77166 140.82238 160 ft 17 kts 331°
2026-05-08 11:20 41.77215 140.82102 160 ft 16 kts 288°
2026-05-08 11:21 41.77252 140.81955 160 ft 18 kts 288°
2026-05-08 11:21 41.77292 140.81790 160 ft 19 kts 288°
2026-05-08 11:21 41.77331 140.81628 160 ft 18 kts 288°
2026-05-08 11:21 41.77369 140.81472 160 ft 17 kts 288°
2026-05-08 11:22 41.77462 140.81429 160 ft 17 kts 18°
2026-05-08 11:22 41.77516 140.81453 160 ft 0 kts 18°